This is the latest recevied weather packets stored in our database for station/object IW1RCO-13. If no packets are shown the sender has not sent any weather packets the latest 10 day(s).
| Time | Temp. | Humidity | Pressure | Rain* | Wind** | Luminosity | Snow |
|---|---|---|---|---|---|---|---|
| 1788696272 | 30.56° C | 62% | 1021.6 hPa | - | - | - | - |
| 1788695997 | 30.56° C | 60% | 1021.5 hPa | - | - | - | - |
| 1788695671 | 30.56° C | 61% | 1021.6 hPa | - | - | - | - |
| 1788695368 | 30.56° C | 60% | 1021.7 hPa | - | - | - | - |
| 1788695071 | 31.11° C | 60% | 1021.1 hPa | - | - | - | - |
| 1788694767 | 31.11° C | 61% | 1021.5 hPa | - | - | - | - |
| 1788694471 | 30.56° C | 61% | 1021.6 hPa | - | - | - | - |
| 1788694167 | 30° C | 63% | 1021.2 hPa | - | - | - | - |
| 1788693870 | 30° C | 63% | 1021.5 hPa | - | - | - | - |
| 1788690869 | 29.44° C | 64% | 1021.5 hPa | - | - | - | - |
| 1788690573 | 29.44° C | 63% | 1021.5 hPa | - | - | - | - |
| 1788690269 | 29.44° C | 64% | 1021.5 hPa | - | - | - | - |
| 1788689972 | 28.89° C | 64% | 1021.5 hPa | - | - | - | - |
| 1788689669 | 28.89° C | 63% | 1021.5 hPa | - | - | - | - |
| 1788689372 | 29.44° C | 62% | 1021.5 hPa | - | - | - | - |
| 1788689068 | 28.89° C | 62% | 1021.5 hPa | - | - | - | - |
| 1788688772 | 29.44° C | 60% | 1021.5 hPa | - | - | - | - |
| 1788688468 | 28.89° C | 61% | 1021.5 hPa | - | - | - | - |
| 1788688171 | 28.89° C | 61% | 1021.5 hPa | - | - | - | - |
| 1788687868 | 28.89° C | 62% | 1021.2 hPa | - | - | - | - |
| 1788687571 | 28.89° C | 61% | 1021.6 hPa | - | - | - | - |
| 1788687268 | 28.89° C | 61% | 1021.5 hPa | - | - | - | - |
| 1788686971 | 28.33° C | 64% | 1021.5 hPa | - | - | - | - |
| 1788686667 | 27.78° C | 62% | 1021.4 hPa | - | - | - | - |
| 1788686371 | 28.33° C | 63% | 1021.3 hPa | - | - | - | - |
* Rain since midnight (hover to see other rain measurements)
** Current wind speed in m/s (hover to see current wind gust speed)